Weather History for KMKJ - June, 2013

Change the Weather History Date:

Sunday, June 23, 2013

  Actual Average (KGEV) Record (KGEV)
Temperature  
Mean Temperature 72 °F -  
Max Temperature 84 °F 78 °F 87 °F (2010)
Min Temperature 61 °F 55 °F 40 °F (1992)
Cooling Degree Days 8    
Growing Degree Days 22 (Base 50)    
Moisture  
Dew Point 64 °F    
Average Humidity 76    
Maximum Humidity 100    
Minimum Humidity 44    
Precipitation  
Precipitation 0.00 in - - ()
Sea Level Pressure  
Sea Level Pressure 30.28 in    
Wind  
Wind Speed 1 mph (WSW)    
Max Wind Speed 8 mph    
Max Gust Speed -    
Visibility 9 miles    
Events Fog , Rain    
Averages and records for this station are not official NWS values.
T = Trace of Precipitation, MM = Missing Value Source: NWS Daily Summary

Daily Weather History Graph

Daily Weather History Graph

Search for Another Location

Airport or City:

Trip Planner

Search our weather history database for the weather conditions in past years. The results will help you decide how hot, cold, wet, or windy it might be!

Date:

Astronomy

Jun. 23, 2013 Rise Set
Actual Time 6:06 AM EDT 8:48 PM EDT
Civil Twilight 5:36 AM EDT 9:19 PM EDT
Nautical Twilight 4:57 AM EDT 9:57 PM EDT
Astronomical Twilight 4:14 AM EDT 10:40 PM EDT
Moon 9:01 PM EDT (6/23) 6:21 AM EDT (6/23)
Length of Visible Light 15h 43m
Length of Day
14h 41m
Full, 100% of the Moon is Illuminated
Jun 23
Full
Jun 30
Last Quarter
Jul 8
New
Jul 15
First Quarter
Jul 22
Full

Hourly Weather History & Observations

Time (EDT) Temp. Heat Index Dew Point Humidity Pressure Visibility Wind Dir Wind Speed Gust Speed Precip Events Conditions
12:15 AM 66.7 °F - 63.0 °F 88% 30.30 in 10.0 mi Calm Calm - N/A   Clear
12:35 AM 65.5 °F - 64.2 °F 96% 30.29 in 10.0 mi Calm Calm - N/A   Clear
12:55 AM 65.7 °F - 64.2 °F 95% 30.29 in 10.0 mi Calm Calm - N/A   Clear
1:15 AM 64.2 °F - 64.2 °F 100% 30.29 in 10.0 mi Calm Calm - N/A   Clear
1:35 AM 64.0 °F - 64.0 °F 100% 30.28 in 10.0 mi Calm Calm - N/A   Clear
1:55 AM 63.7 °F - 63.7 °F 100% 30.28 in 10.0 mi Calm Calm - N/A   Clear
2:15 AM 63.5 °F - 63.5 °F 100% 30.27 in 10.0 mi Calm Calm - N/A   Clear
2:35 AM 62.8 °F - 62.8 °F 100% 30.27 in 7.0 mi Calm Calm - N/A   Clear
2:55 AM 62.2 °F - 62.2 °F 100% 30.26 in 10.0 mi Calm Calm - N/A   Clear
3:15 AM 62.4 °F - 62.4 °F 100% 30.26 in 7.0 mi Calm Calm - N/A   Clear
3:35 AM 62.1 °F - 62.1 °F 100% 30.25 in 5.0 mi Calm Calm - N/A   Clear
3:55 AM 62.1 °F - 62.1 °F 100% 30.24 in 10.0 mi Calm Calm - N/A   Clear
4:15 AM 63.1 °F - 63.1 °F 100% 30.25 in 10.0 mi Calm Calm - N/A   Clear
4:35 AM 63.0 °F - 63.0 °F 100% 30.25 in 7.0 mi Calm Calm - N/A   Clear
4:55 AM 63.5 °F - 63.5 °F 100% 30.25 in 10.0 mi Calm Calm - N/A   Clear
5:15 AM 62.6 °F - 62.6 °F 100% 30.26 in 7.0 mi Calm Calm - N/A   Clear
5:35 AM 62.8 °F - 62.8 °F 100% 30.27 in 7.0 mi Calm Calm - N/A   Clear
5:55 AM 61.7 °F - 61.7 °F 100% 30.27 in 5.0 mi Calm Calm - N/A   Clear
6:15 AM 62.1 °F - 62.1 °F 100% 30.28 in 5.0 mi Calm Calm - N/A   Mostly Cloudy
6:35 AM 62.4 °F - 62.4 °F 100% 30.28 in 5.0 mi Calm Calm - N/A   Overcast
6:55 AM 63.9 °F - 63.9 °F 100% 30.29 in 4.0 mi Calm Calm - N/A   Overcast
7:15 AM 64.9 °F - 64.9 °F 100% 30.30 in 1.2 mi Calm Calm - N/A   Overcast
7:35 AM 65.3 °F - 65.3 °F 100% 30.30 in 0.2 mi Calm Calm - N/A Fog Fog
7:55 AM 65.7 °F - 65.7 °F 100% 30.31 in 0.2 mi Calm Calm - N/A Fog Fog
8:15 AM 66.2 °F - 66.2 °F 100% 30.31 in 0.2 mi Calm Calm - N/A Fog Fog
8:35 AM 66.4 °F - 66.4 °F 100% 30.32 in 2.5 mi Calm Calm - N/A   Overcast
8:55 AM 67.5 °F - 67.5 °F 100% 30.32 in 1.8 mi Calm Calm - N/A   Overcast
9:15 AM 68.4 °F - 68.4 °F 100% 30.33 in 4.0 mi Calm Calm - N/A   Overcast
9:35 AM 70.2 °F - 69.3 °F 97% 30.33 in 10.0 mi Calm Calm - N/A   Mostly Cloudy
9:55 AM 71.6 °F - 69.1 °F 92% 30.32 in 10.0 mi Calm Calm - N/A   Scattered Clouds
10:15 AM 74.1 °F - 67.5 °F 80% 30.33 in 10.0 mi Calm Calm - N/A   Clear
10:35 AM 76.1 °F - 68.4 °F 77% 30.33 in 10.0 mi Calm Calm - N/A   Clear
10:55 AM 77.2 °F - 63.1 °F 62% 30.32 in 10.0 mi Calm Calm - N/A   Clear
11:15 AM 77.9 °F - 63.9 °F 62% 30.33 in 10.0 mi South 4.6 mph - N/A   Clear
11:35 AM 79.3 °F - 65.3 °F 62% 30.33 in 10.0 mi SSW 3.5 mph - N/A   Clear
11:55 AM 80.2 °F 82.0 °F 64.9 °F 59% 30.32 in 10.0 mi WSW 4.6 mph - N/A   Scattered Clouds
12:15 PM 80.6 °F 82.5 °F 65.5 °F 60% 30.31 in 10.0 mi WSW 4.6 mph - N/A   Scattered Clouds
12:35 PM 81.0 °F 82.7 °F 64.9 °F 58% 30.31 in 10.0 mi WNW 3.5 mph - N/A   Scattered Clouds
12:55 PM 79.5 °F - 62.8 °F 56% 30.30 in 10.0 mi West 6.9 mph - N/A   Mostly Cloudy
1:15 PM 81.7 °F 83.2 °F 63.9 °F 55% 30.30 in 10.0 mi West 6.9 mph - N/A   Scattered Clouds
1:35 PM 82.6 °F 83.9 °F 63.7 °F 53% 30.30 in 10.0 mi WSW 3.5 mph - N/A   Clear
1:55 PM 82.6 °F 83.6 °F 62.6 °F 51% 30.29 in 10.0 mi WNW 8.1 mph - N/A   Mostly Cloudy
2:15 PM 80.8 °F 81.8 °F 61.9 °F 52% 30.28 in 10.0 mi WNW 3.5 mph - N/A   Mostly Cloudy
2:35 PM 82.6 °F 84.3 °F 64.8 °F 55% 30.28 in 10.0 mi NNW 5.8 mph - N/A   Mostly Cloudy
2:55 PM 82.9 °F 84.2 °F 63.5 °F 52% 30.27 in 10.0 mi Calm Calm - N/A   Scattered Clouds
3:15 PM 81.5 °F 81.8 °F 59.5 °F 47% 30.26 in 10.0 mi Calm Calm - N/A   Scattered Clouds
3:35 PM 82.6 °F 82.6 °F 59.5 °F 45% 30.25 in 10.0 mi Calm Calm - N/A   Mostly Cloudy
3:55 PM 84.6 °F 84.6 °F 60.6 °F 44% 30.24 in 10.0 mi Calm Calm - N/A   Scattered Clouds
4:15 PM 81.9 °F 82.2 °F 60.1 °F 47% 30.24 in 10.0 mi Calm Calm - N/A   Scattered Clouds
4:35 PM 82.9 °F 82.8 °F 58.8 °F 44% 30.24 in 10.0 mi Calm Calm - N/A   Scattered Clouds
4:55 PM 83.1 °F 83.0 °F 58.8 °F 44% 30.24 in 10.0 mi Calm Calm - N/A   Scattered Clouds
5:15 PM 82.9 °F 83.5 °F 61.3 °F 48% 30.24 in 10.0 mi Calm Calm - N/A   Clear
5:35 PM 82.8 °F 83.3 °F 61.2 °F 48% 30.24 in 10.0 mi Calm Calm - N/A   Scattered Clouds
5:55 PM 81.9 °F 82.5 °F 61.0 °F 49% 30.24 in 10.0 mi South 5.8 mph - N/A   Overcast
6:15 PM 79.3 °F - 64.6 °F 60% 30.24 in 10.0 mi Calm Calm - N/A Rain Rain
6:35 PM 78.4 °F - 66.0 °F 66% 30.24 in 10.0 mi Calm Calm - N/A   Scattered Clouds
6:55 PM 78.3 °F - 63.9 °F 61% 30.24 in 10.0 mi Calm Calm - N/A   Scattered Clouds
7:15 PM 79.5 °F - 63.0 °F 57% 30.24 in 10.0 mi Calm Calm - N/A   Clear
7:35 PM 79.3 °F - 59.4 °F 50% 30.24 in 10.0 mi Calm Calm - N/A   Clear
7:55 PM 78.8 °F - 59.9 °F 52% 30.24 in 10.0 mi Calm Calm - N/A   Clear
8:15 PM 77.2 °F - 63.0 °F 61% 30.24 in 10.0 mi Calm Calm - N/A   Clear
8:35 PM 75.4 °F - 63.1 °F 66% 30.25 in 10.0 mi Calm Calm - N/A   Clear
8:55 PM 75.2 °F - 62.4 °F 64% 30.25 in 10.0 mi Calm Calm - N/A   Clear
9:15 PM 73.9 °F - 63.0 °F 68% 30.25 in 10.0 mi Calm Calm - N/A   Clear
9:35 PM 71.8 °F - 63.7 °F 76% 30.26 in 10.0 mi Calm Calm - N/A   Clear
9:55 PM 70.3 °F - 63.5 °F 79% 30.28 in 10.0 mi Calm Calm - N/A   Clear
10:15 PM 69.8 °F - 63.9 °F 81% 30.28 in 10.0 mi Calm Calm - N/A   Scattered Clouds
10:35 PM 70.7 °F - 63.7 °F 78% 30.29 in 10.0 mi Calm Calm - N/A   Scattered Clouds
10:55 PM 70.7 °F - 64.2 °F 80% 30.29 in 10.0 mi East 3.5 mph - N/A   Mostly Cloudy
11:15 PM 73.6 °F - 64.4 °F 73% 30.29 in 10.0 mi West 3.5 mph - N/A   Mostly Cloudy
11:35 PM 71.8 °F - 64.4 °F 77% 30.29 in 10.0 mi Calm Calm - N/A   Scattered Clouds
11:55 PM 71.2 °F - 64.4 °F 79% 30.29 in 10.0 mi Calm Calm - N/A   Scattered Clouds